Weather History for KCHA - October, 2013

Change the Weather History Date:

Monday, October 21, 2013

  Actual Average Record
Temperature  
Mean Temperature 55 °F 60 °F  
Max Temperature 71 °F 72 °F 89 °F (1963)
Min Temperature 38 °F 48 °F 30 °F (1972)
Degree Days  
Heating Degree Days 10 6  
Month to date heating degree days 34 81  
Since 1 July heating degree days 34 96  
Cooling Degree Days 0 1  
Month to date cooling degree days 78 42  
Year to date cooling degree days 1748 1731  
Growing Degree Days 4 (Base 50)    
Moisture  
Dew Point 42 °F    
Average Humidity 64    
Maximum Humidity 93    
Minimum Humidity 34    
Precipitation  
Precipitation 0.00 in 0.11 in 1.23 in (1962)
Month to date precipitation 0.16 2.20  
Year to date precipitation 56.47 41.50  
Snow  
Snow 0.00 in 0.00 in - ()
Month to date snowfall 0.0 0.0  
Since 1 July snowfall 0.0 0.0  
Since 1 September snowfall 0.0 0.0  
Snow Depth 0.00 in    
Sea Level Pressure  
Sea Level Pressure 30.09 in    
Wind  
Wind Speed 2 mph (SE)    
Max Wind Speed 9 mph    
Max Gust Speed 13 mph    
Visibility 8 miles    
Events Fog    
T = Trace of Precipitation, MM = Missing Value Source: NWS Daily Summary

Daily Weather History Graph

Daily Weather History Graph

Search for Another Location

Airport or City:

Trip Planner

Search our weather history database for the weather conditions in past years. The results will help you decide how hot, cold, wet, or windy it might be!

Date:

Astronomy

Oct. 21, 2013 Rise Set
Actual Time 7:52 AM EDT 6:58 PM EDT
Civil Twilight 7:26 AM EDT 7:23 PM EDT
Nautical Twilight 6:56 AM EDT 7:53 PM EDT
Astronomical Twilight 6:27 AM EDT 8:22 PM EDT
Moon 8:55 PM EDT (10/21) 10:21 AM EDT (10/21)
Length of Visible Light 11h 57m
Length of Day
11h 06m
Waning Gibbous, 93% of the Moon is Illuminated
Oct 21
Waning Gibbous
Oct 26
Last Quarter
Nov 3
New
Nov 10
First Quarter
Nov 17
Full

Hourly Weather History & Observations

Time (EDT) Temp. Dew Point Humidity Pressure Visibility Wind Dir Wind Speed Gust Speed Precip Events Conditions
12:53 AM 44.1 °F 39.9 °F 85% 30.08 in 10.0 mi Calm Calm - N/A   Clear
1:53 AM 43.0 °F 39.9 °F 89% 30.07 in 10.0 mi Calm Calm - N/A   Clear
2:53 AM 42.1 °F 39.0 °F 89% 30.08 in 10.0 mi Calm Calm - N/A   Clear
3:53 AM 43.0 °F 39.0 °F 86% 30.09 in 10.0 mi Calm Calm - N/A   Clear
4:53 AM 42.1 °F 37.9 °F 85% 30.09 in 10.0 mi Calm Calm - N/A   Clear
5:47 AM 41.0 °F 37.4 °F 87% 30.11 in 10.0 mi Calm Calm - N/A Fog Patches of Fog
5:53 AM 39.9 °F 37.0 °F 89% 30.10 in 10.0 mi Calm Calm - N/A Fog Patches of Fog
6:53 AM 39.9 °F 36.0 °F 86% 30.12 in 10.0 mi Calm Calm - N/A Fog Patches of Fog
7:53 AM 39.9 °F 36.0 °F 86% 30.13 in 10.0 mi Calm Calm - N/A Fog Patches of Fog
8:48 AM 41.0 °F 37.4 °F 87% 30.13 in 7.0 mi Calm Calm - N/A Fog Patches of Fog
8:53 AM 41.0 °F 37.9 °F 89% 30.14 in 7.0 mi Calm Calm - N/A Fog Patches of Fog
9:18 AM 42.8 °F 39.2 °F 87% 30.15 in 3.0 mi Calm Calm - N/A Fog Patches of Fog
9:25 AM 44.6 °F 39.2 °F 81% 30.15 in 2.5 mi Calm Calm - N/A Fog Patches of Fog
9:50 AM 44.6 °F 42.8 °F 93% 30.15 in 0.2 mi Calm Calm - N/A Fog Fog
9:53 AM 44.1 °F 42.1 °F 93% 30.16 in 0.2 mi Calm Calm - N/A Fog Fog
10:46 AM 48.2 °F 46.4 °F 93% 30.15 in 0.5 mi North 3.5 mph - N/A Fog Fog
10:47 AM 48.2 °F 46.4 °F 93% 30.15 in 1.0 mi North 3.5 mph - N/A   Mostly Cloudy
10:49 AM 48.2 °F 46.4 °F 93% 30.14 in 3.0 mi North 3.5 mph - N/A   Mostly Cloudy
10:50 AM 48.2 °F 46.4 °F 93% 30.14 in 4.0 mi North 3.5 mph - N/A Fog Patches of Fog
10:53 AM 48.0 °F 46.0 °F 93% 30.15 in 5.0 mi Calm Calm - N/A Fog Patches of Fog
11:53 AM 59.0 °F 46.0 °F 62% 30.13 in 10.0 mi Calm Calm - N/A   Scattered Clouds
12:53 PM 64.9 °F 43.0 °F 45% 30.11 in 10.0 mi South 6.9 mph - N/A   Scattered Clouds
1:53 PM 68.0 °F 42.1 °F 39% 30.06 in 10.0 mi SSW 8.1 mph - N/A   Scattered Clouds
2:53 PM 69.1 °F 42.1 °F 38% 30.03 in 10.0 mi Calm Calm - N/A   Mostly Cloudy
3:53 PM 70.0 °F 41.0 °F 35% 30.02 in 10.0 mi SSE 4.6 mph - N/A   Mostly Cloudy
4:53 PM 71.1 °F 41.0 °F 34% 30.01 in 10.0 mi Variable 4.6 mph - N/A   Mostly Cloudy
5:53 PM 69.1 °F 44.1 °F 40% 30.00 in 10.0 mi SE 3.5 mph - N/A   Mostly Cloudy
6:53 PM 66.0 °F 45.0 °F 47% 30.02 in 10.0 mi Calm Calm - N/A   Mostly Cloudy
7:53 PM 64.0 °F 45.0 °F 50% 30.02 in 10.0 mi South 4.6 mph - N/A   Mostly Cloudy
8:53 PM 60.1 °F 46.9 °F 62% 30.03 in 10.0 mi ESE 4.6 mph - N/A   Mostly Cloudy
9:53 PM 61.0 °F 46.0 °F 58% 30.02 in 10.0 mi Calm Calm - N/A   Mostly Cloudy
10:53 PM 57.9 °F 46.9 °F 67% 30.03 in 10.0 mi Calm Calm - N/A   Mostly Cloudy
11:53 PM 57.9 °F 48.0 °F 70% 30.03 in 10.0 mi Calm Calm - N/A   Mostly Cloudy